NOAA 16 DEB, 41094

Orbit data source: Space-Track

NOAA 16 DEB, 41094 is space debris in SSO originally from a launch on Thu, 21 Sep 2000 UTC launched from the Air Force Western Test Range (AFWTR). Debris objects in space refer to the collection of defunct objects orbiting the Earth. Examples of debris include non-operational satellites, rocket bodies, and fragments generated from explosions, collisions, or faulty payload assembly.

Loading next visibility...
Identifier
41094, 2000-055BD
Orbit
SSO
Country
Flag of USUS
Related business
Manufacturer
Unknown
Mission
Spacecraft
Bus & Motor
Unknown
Mass
Unknown
Launch date (UTC)
2000-09-21 (25 years ago)
Launch vehicle
Unknown
Launch site
Air Force Western Test Range (AFWTR)
Object type
Payload
Rocket body
Debris
Shape & HBR
Unknown shape, 0.1 m
Radar Cross Section
Small (<0.1 m²)

Expand to show TLE details & history
Last TLE update: 18 hours ago

TLE from 18 hours ago
0 NOAA 16 DEB
1 41094U 00055BD  26062.76238832  .00044600  00000-0  57981-2 0  9999
2 41094  98.9969 358.0701 0028090 251.7977 108.0174 14.80220884537767
Epoch: 2026-03-03T18:17Z
TLE epoch observation values (Epoch: 2026-03-03T18:17:50.350Z)
Latitude
0.00003°
Longitude
-77.92649°
Altitude
637.753 km
Speed
7.536 km/s
True Right ascension
23h 52m 16s
True Declination
0° 00' 00"
Sunlit
Object was in daylight at epoch
Visualization orbit readout
Latitude
Unknown
Longitude
Unknown
Altitude
Unknown
Speed
Unknown
Apparent Right ascension
Unknown
Apparent Declination
Unknown
Sunlit
N/A
Visualization observer readout
Local Sidereal Time
16:25:51
Azimuth
Unknown
Elevation
Unknown
Doppler factor
Unknown
Orbital elements
Apogee altitude
645.394 km
Perigee altitude
606.046 km
Semi-major axis
7,003.857 km
Eccentricity
0.00281
Inclination
98.9969°
RAAN
358.0701°
Arg. of periapsis
251.7977°
True anomaly
108.32317°
Mean anomaly
108.0174°
Eccentric anomaly
108.17032°
Mean motion
3.70286 °/min
Orbital period
97.22 mins
BSTAR
0.0057981
Loading maneuver chart data...
Computing Atmospheric mass density...
Loading historical data...
Loading historical data...
Loading historical data...
Loading historical data...
Loading historical data...
Loading historical data...
Loading historical data...

Documentation

Showing up to 5 results
|